| time (UTC) | temp F | wind direction | speed MPH | gust MPH | rain 1hr in | rain 24hr in | rain mn in | humidity % | barometer mb |
| 20260831174600 | 62 | 300 | 3.0 | 9.0 | 0.00 | 0.59 | 0.04 | 78 | 1015.3 |
| 20260831173050 | 62 | 317 | 3.0 | 10.0 | 0.00 | 0.59 | 0.04 | 77 | 1015.1 |
| 20260831171550 | 63 | 317 | 2.0 | 9.0 | 0.00 | 0.59 | 0.04 | 76 | 1014.9 |
| 20260831170126 | 63 | 319 | 5.0 | 12.0 | 0.00 | 0.59 | 0.04 | 76 | 1014.6 |
| 20260831164547 | 63 | 277 | 2.0 | 12.0 | 0.00 | 0.60 | 0.04 | 77 | 1014.4 |
| 20260831163046 | 63 | 259 | 5.0 | 12.0 | 0.00 | 0.60 | 0.04 | 77 | 1014.5 |
| 20260831161546 | 64 | 304 | 4.0 | 14.0 | 0.00 | 0.60 | 0.04 | 76 | 1014.4 |
| 20260831160044 | 64 | 315 | 5.0 | 12.0 | 0.00 | 0.60 | 0.04 | 77 | 1014.3 |
| 20260831154549 | 65 | 272 | 7.0 | 12.0 | 0.00 | 0.91 | 0.04 | 75 | 1013.9 |
| 20260831153041 | 65 | 286 | 5.0 | 16.0 | 0.00 | 0.91 | 0.04 | 74 | 1013.7 |
| 20260831151540 | 65 | 263 | 6.0 | 12.0 | 0.00 | 0.91 | 0.04 | 74 | 1013.6 |
| 20260831150039 | 66 | 280 | 5.0 | 14.0 | 0.00 | 0.91 | 0.04 | 75 | 1013.4 |
| 20260831144538 | 66 | 307 | 4.0 | 13.0 | 0.00 | 0.92 | 0.04 | 73 | 1013.3 |
| 20260831143036 | 67 | 301 | 5.0 | 13.0 | 0.00 | 0.92 | 0.04 | 72 | 1013.1 |
| 20260831141535 | 67 | 296 | 5.0 | 15.0 | 0.00 | 0.92 | 0.04 | 73 | 1012.7 |
| 20260831140035 | 67 | 268 | 6.0 | 13.0 | 0.00 | 0.92 | 0.04 | 73 | 1012.5 |
| 20260831134533 | 68 | 249 | 4.0 | 14.0 | 0.00 | 0.94 | 0.04 | 72 | 1012.5 |
| 20260831133030 | 69 | 255 | 7.0 | 13.0 | 0.00 | 0.94 | 0.04 | 71 | 1012.2 |
| 20260831131527 | 69 | 260 | 5.0 | 15.0 | 0.00 | 0.94 | 0.04 | 75 | 1012.0 |
| 20260831130026 | 68 | 280 | 7.0 | 14.0 | 0.00 | 0.94 | 0.04 | 74 | 1011.9 |
| 20260831124525 | 67 | 282 | 6.0 | 13.0 | 0.00 | 0.94 | 0.04 | 76 | 1011.7 |
| 20260831123023 | 68 | 275 | 5.0 | 15.0 | 0.00 | 0.94 | 0.04 | 74 | 1011.4 |
| 20260831121524 | 67 | 292 | 5.0 | 15.0 | 0.00 | 0.94 | 0.04 | 76 | 1011.2 |
| 20260831120028 | 67 | 309 | 6.0 | 15.0 | 0.00 | 0.94 | 0.04 | 75 | 1010.8 |
| 20260831114519 | 68 | 320 | 7.0 | 14.0 | 0.00 | 0.94 | 0.04 | 75 | 1010.5 |
| 20260831113016 | 68 | 269 | 7.0 | 14.0 | 0.00 | 0.94 | 0.04 | 77 | 1010.4 |
| 20260831111523 | 67 | 261 | 5.0 | 17.0 | 0.00 | 0.94 | 0.04 | 78 | 1010.0 |
| 20260831110009 | 67 | 336 | 4.0 | 13.0 | 0.00 | 0.94 | 0.04 | 79 | 1009.8 |
| 20260831104508 | 66 | 298 | 4.0 | 10.0 | 0.00 | 0.94 | 0.04 | 80 | 1009.7 |
| 20260831103005 | 66 | 275 | 5.0 | 15.0 | 0.00 | 0.94 | 0.04 | 80 | 1009.3 |
| 20260831101502 | 65 | 275 | 5.0 | 13.0 | 0.00 | 0.94 | 0.04 | 81 | 1009.5 |
| 20260831100058 | 64 | 307 | 4.0 | 11.0 | 0.00 | 0.94 | 0.04 | 84 | 1009.1 |
| 20260831094556 | 63 | 312 | 3.0 | 12.0 | 0.00 | 0.94 | 0.04 | 84 | 1008.9 |
| 20260831093056 | 63 | 293 | 5.0 | 11.0 | 0.00 | 0.94 | 0.04 | 87 | 1008.7 |
| 20260831091603 | 63 | 304 | 8.0 | 16.0 | 0.00 | 0.94 | 0.04 | 86 | 1008.4 |
| 20260831090058 | 62 | 259 | 4.0 | 11.0 | 0.01 | 0.94 | 0.04 | 88 | 1008.1 |
| 20260831084546 | 62 | 292 | 6.0 | 13.0 | 0.01 | 0.94 | 0.04 | 90 | 1008.2 |
| 20260831083038 | 61 | 297 | 5.0 | 13.0 | 0.01 | 0.94 | 0.04 | 93 | 1007.8 |
| 20260831081537 | 61 | 288 | 4.0 | 12.0 | 0.01 | 0.94 | 0.04 | 94 | 1007.5 |
| 20260831080048 | 60 | 292 | 4.0 | 11.0 | 0.00 | 0.93 | 0.03 | 97 | 1007.4 |
| 20260831074530 | 60 | 262 | 5.0 | 10.0 | 0.00 | 0.93 | 0.03 | 99 | 1007.1 |
| 20260831073032 | 59 | 254 | 1.0 | 8.0 | 0.00 | 0.93 | 0.03 | 99 | 1006.7 |
| 20260831071524 | 58 | 178 | 0.0 | 0.0 | 0.00 | 0.93 | 0.03 | 100 | 1006.5 |
| 20260831070021 | 56 | 161 | 0.0 | 0.0 | 0.00 | 0.93 | 0.03 | 99 | 1006.2 |
| 20260831064518 | 56 | 159 | 0.0 | 0.0 | 0.00 | 0.93 | 0.03 | 99 | 1005.9 |
| 20260831063020 | 55 | 157 | 0.0 | 0.0 | 0.00 | 0.93 | 0.03 | 99 | 1005.7 |
| 20260831061513 | 54 | 157 | 0.0 | 0.0 | 0.00 | 0.93 | 0.03 | 99 | 1005.5 |
| 20260831060009 | 53 | 189 | 0.0 | 0.0 | 0.00 | 0.93 | 0.03 | 99 | 1005.3 |
| 20260831054507 | 54 | 215 | 0.0 | 0.0 | 0.00 | 0.93 | 0.03 | 98 | 1005.0 |
| 20260831053008 | 54 | 215 | 0.0 | 0.0 | 0.00 | 0.93 | 0.03 | 98 | 1004.8 |
| 20260831051509 | 54 | 188 | 0.0 | 0.0 | 0.00 | 0.93 | 0.03 | 98 | 1004.6 |
| 20260831050002 | 54 | 184 | 0.0 | 0.0 | 0.00 | 0.93 | 0.03 | 99 | 1004.2 |
| 20260831044503 | 54 | 186 | 0.0 | 0.0 | 0.00 | 0.93 | 0.03 | 99 | 1004.1 |
| 20260831043101 | 54 | 183 | 0.0 | 0.0 | 0.00 | 0.93 | 0.03 | 99 | 1003.9 |
| 20260831041624 | 54 | 194 | 0.0 | 0.0 | 0.00 | 0.93 | 0.03 | 99 | 1003.9 |
| 20260831040059 | 53 | 194 | 0.0 | 0.0 | 0.00 | 0.93 | 0.03 | 98 | 1003.9 |
| 20260831034557 | 53 | 194 | 0.0 | 0.0 | 0.00 | 0.93 | 0.03 | 98 | 1003.8 |
| 20260831033057 | 53 | 194 | 0.0 | 3.0 | 0.00 | 0.93 | 0.03 | 98 | 1003.7 |
| 20260831031602 | 53 | 198 | 0.0 | 0.0 | 0.00 | 0.93 | 0.03 | 98 | 1003.5 |
| 20260831030104 | 53 | 198 | 0.0 | 0.0 | 0.00 | 0.93 | 0.03 | 98 | 1003.5 |
| 20260831024554 | 53 | 198 | 0.0 | 2.0 | 0.00 | 0.93 | 0.03 | 98 | 1003.3 |
| 20260831023048 | 54 | 198 | 2.0 | 5.0 | 0.00 | 0.93 | 0.03 | 98 | 1003.0 |
| 20260831021551 | 54 | 224 | 0.0 | 2.0 | 0.00 | 0.93 | 0.03 | 98 | 1003.0 |
| 20260831020044 | 54 | 190 | 0.0 | 0.0 | 0.00 | 0.93 | 0.03 | 98 | 1002.7 |
| 20260831014543 | 54 | 190 | 0.0 | 0.0 | 0.00 | 0.93 | 0.03 | 98 | 1002.7 |
| 20260831013042 | 54 | 190 | 0.0 | 2.0 | 0.00 | 0.93 | 0.03 | 98 | 1002.6 |
| 20260831011541 | 55 | 190 | 1.0 | 5.0 | 0.00 | 0.93 | 0.03 | 98 | 1002.5 |
| 20260831010042 | 55 | 175 | 0.0 | 4.0 | 0.00 | 0.93 | 0.03 | 98 | 1002.4 |
| 20260831004538 | 54 | 199 | 2.0 | 4.0 | 0.01 | 0.93 | 0.03 | 98 | 1002.1 |
| 20260831003045 | 54 | 90 | 0.0 | 0.0 | 0.02 | 0.93 | 0.03 | 98 | 1001.7 |
| 20260831001536 | 54 | 87 | 0.0 | 0.0 | 0.02 | 0.93 | 0.03 | 98 | 1001.8 |
| 20260831000044 | 54 | 87 | 0.0 | 1.0 | 0.03 | 0.93 | 0.03 | 97 | 1001.7 |
| 20260830234544 | 55 | 87 | 1.0 | 3.0 | 0.15 | 0.92 | 0.02 | 97 | 1001.4 |
| 20260830233032 | 54 | 94 | 1.0 | 3.0 | 0.24 | 0.91 | 0.01 | 97 | 1001.6 |
| 20260830231530 | 54 | 11 | 0.0 | 3.0 | 0.31 | 0.91 | 0.01 | 97 | 1001.6 |
| 20260830230032 | 55 | 355 | 1.0 | 4.0 | 0.31 | 0.90 | 0.00 | 96 | 1001.7 |
| 20260830224526 | 56 | 272 | 2.0 | 13.0 | 0.17 | 0.76 | 0.76 | 96 | 1001.9 |
| 20260830223024 | 59 | 179 | 4.0 | 7.0 | 0.07 | 0.65 | 0.65 | 98 | 1001.7 |
| 20260830221529 | 59 | 165 | 0.0 | 2.0 | 0.01 | 0.59 | 0.59 | 98 | 1001.5 |
| 20260830220020 | 59 | 165 | 0.0 | 2.0 | 0.00 | 0.57 | 0.57 | 97 | 1001.6 |
| 20260830214519 | 59 | 164 | 1.0 | 7.0 | 0.00 | 0.57 | 0.57 | 97 | 1001.6 |
| 20260830213022 | 59 | 167 | 3.0 | 4.0 | 0.00 | 0.57 | 0.57 | 97 | 1001.9 |
| 20260830211520 | 58 | 167 | 0.0 | 2.0 | 0.00 | 0.57 | 0.57 | 97 | 1001.8 |
| 20260830210019 | 58 | 166 | 0.0 | 2.0 | 0.00 | 0.57 | 0.57 | 97 | 1001.9 |
| 20260830204531 | 58 | 169 | 0.0 | 3.0 | 0.00 | 0.59 | 0.57 | 97 | 1001.8 |
| 20260830203018 | 59 | 180 | 3.0 | 9.0 | 0.00 | 0.59 | 0.57 | 97 | 1001.8 |
| 20260830201607 | 59 | 178 | 3.0 | 8.0 | 0.02 | 0.59 | 0.57 | 96 | 1002.1 |
| 20260830200014 | 59 | 176 | 4.0 | 9.0 | 0.06 | 0.59 | 0.57 | 96 | 1002.1 |
| 20260830194630 | 60 | 188 | 4.0 | 8.0 | 0.08 | 0.60 | 0.57 | 96 | 1001.9 |
| 20260830193047 | 60 | 190 | 5.0 | 9.0 | 0.09 | 0.60 | 0.57 | 96 | 1002.0 |
| 20260830191505 | 61 | 206 | 2.0 | 7.0 | 0.08 | 0.57 | 0.56 | 96 | 1001.9 |
| 20260830190057 | 61 | 159 | 6.0 | 10.0 | 0.04 | 0.54 | 0.53 | 96 | 1002.0 |
| 20260830184545 | 61 | 198 | 3.0 | 10.0 | 0.12 | 0.51 | 0.50 | 95 | 1001.9 |
| 20260830183002 | 61 | 172 | 4.0 | 8.0 | 0.14 | 0.50 | 0.49 | 95 | 1002.0 |
| 20260830181601 | 61 | 167 | 4.0 | 11.0 | 0.14 | 0.50 | 0.49 | 95 | 1002.1 |
| 20260830180027 | 61 | 128 | 4.0 | 8.0 | 0.13 | 0.50 | 0.48 | 94 | 1002.2 |